Time,TemperatureF,DewpointF,PressureIn,WindDirection,WindDirectionDegrees,WindSpeedMPH,WindSpeedGustMPH,Humidity,HourlyPrecipIn,Conditions,Clouds,dailyrainin,SoftwareType,DateUTC
2013-09-16 00:02:00,55.9,49.1,30.21,SSW,202,2.2,-999.0,78,-99.99,,,0.00,Acu-Link.com,2013-09-16 06:02:00,
2013-09-16 00:17:00,54.7,48.7,30.20,SE,135,2.7,-999.0,80,-99.99,,,0.00,Acu-Link.com,2013-09-16 06:17:00,
2013-09-16 00:32:00,56.1,49.3,30.20,ESE,112,7.3,-999.0,78,-99.99,,,0.00,Acu-Link.com,2013-09-16 06:32:00,
2013-09-16 00:47:00,56.7,49.6,30.20,ESE,112,2.7,-999.0,77,-99.99,,,0.00,Acu-Link.com,2013-09-16 06:47:00,
2013-09-16 01:03:00,56.1,49.0,30.20,ESE,112,4.2,-999.0,77,-99.99,,,0.00,Acu-Link.com,2013-09-16 07:03:00,
2013-09-16 01:18:00,56.5,49.4,30.20,SSE,157,5.8,-999.0,77,-99.99,,,0.00,Acu-Link.com,2013-09-16 07:18:00,
2013-09-16 01:33:00,55.2,49.1,30.20,NW,315,2.7,-999.0,80,-99.99,,,0.00,Acu-Link.com,2013-09-16 07:33:00,
2013-09-16 01:48:00,54.1,49.1,30.20,WSW,247,2.7,-999.0,83,-99.99,,,0.00,Acu-Link.com,2013-09-16 07:48:00,
2013-09-16 02:03:00,54.0,49.0,30.20,NE,45,1.7,-999.0,83,-99.99,,,0.00,Acu-Link.com,2013-09-16 08:03:00,
2013-09-16 02:19:00,53.8,48.8,30.20,North,0,1.7,-999.0,83,-99.99,,,0.00,Acu-Link.com,2013-09-16 08:19:00,
2013-09-16 02:34:00,53.6,49.2,30.20,NW,315,0.0,-999.0,85,-99.99,,,0.00,Acu-Link.com,2013-09-16 08:34:00,
2013-09-16 02:49:00,53.1,48.7,30.20,West,270,0.0,-999.0,85,-99.99,,,0.00,Acu-Link.com,2013-09-16 08:49:00,
2013-09-16 03:05:00,52.5,48.4,30.20,NNE,22,0.0,-999.0,86,-99.99,,,0.00,Acu-Link.com,2013-09-16 09:05:00,
2013-09-16 03:20:00,52.7,48.9,30.20,NNE,22,1.7,-999.0,87,-99.99,,,0.00,Acu-Link.com,2013-09-16 09:20:00,
2013-09-16 03:35:00,52.7,49.2,30.20,NNE,22,1.7,-999.0,88,-99.99,,,0.00,Acu-Link.com,2013-09-16 09:35:00,
2013-09-16 03:50:00,52.5,49.0,30.20,SSW,202,0.0,-999.0,88,-99.99,,,0.00,Acu-Link.com,2013-09-16 09:50:00,
2013-09-16 04:05:00,51.6,48.2,30.21,ESE,112,0.0,-999.0,88,-99.99,,,0.00,Acu-Link.com,2013-09-16 10:05:00,
2013-09-16 04:21:00,51.4,48.3,30.21,ESE,112,0.0,-999.0,89,-99.99,,,0.00,Acu-Link.com,2013-09-16 10:21:00,
2013-09-16 04:36:00,52.0,48.3,30.21,ESE,112,0.0,-999.0,87,-99.99,,,0.00,Acu-Link.com,2013-09-16 10:36:00,
2013-09-16 04:51:00,52.2,48.1,30.22,ESE,112,2.2,-999.0,86,-99.99,,,0.00,Acu-Link.com,2013-09-16 10:51:00,
2013-09-16 05:07:00,52.3,48.2,30.22,NNE,22,0.0,-999.0,86,-99.99,,,0.00,Acu-Link.com,2013-09-16 11:07:00,
2013-09-16 05:22:00,52.0,48.3,30.22,NNE,22,0.0,-999.0,87,-99.99,,,0.00,Acu-Link.com,2013-09-16 11:22:00,
2013-09-16 05:37:00,52.3,47.9,30.22,NNE,22,2.2,-999.0,85,-99.99,,,0.00,Acu-Link.com,2013-09-16 11:37:00,
2013-09-16 05:52:00,51.6,47.2,30.22,NNE,22,0.0,-999.0,85,-99.99,,,0.00,Acu-Link.com,2013-09-16 11:52:00,
2013-09-16 06:08:00,50.2,47.1,30.23,NNE,22,0.0,-999.0,89,-99.99,,,0.00,Acu-Link.com,2013-09-16 12:08:00,
2013-09-16 06:23:00,49.8,46.7,30.23,NNE,22,0.0,-999.0,89,-99.99,,,0.00,Acu-Link.com,2013-09-16 12:23:00,
2013-09-16 06:38:00,49.5,46.4,30.24,NNE,22,0.0,-999.0,89,-99.99,,,0.00,Acu-Link.com,2013-09-16 12:38:00,
2013-09-16 06:54:00,49.3,46.5,30.25,NNE,22,0.0,-999.0,90,-99.99,,,0.00,Acu-Link.com,2013-09-16 12:54:00,
2013-09-16 07:09:00,49.6,47.1,30.25,NNE,22,1.7,-999.0,91,-99.99,,,0.00,Acu-Link.com,2013-09-16 13:09:00,
2013-09-16 07:24:00,50.5,48.0,30.26,NNE,22,1.7,-999.0,91,-99.99,,,0.00,Acu-Link.com,2013-09-16 13:24:00,
2013-09-16 07:39:00,51.4,48.6,30.26,NNE,22,0.0,-999.0,90,-99.99,,,0.00,Acu-Link.com,2013-09-16 13:39:00,
2013-09-16 07:54:00,52.3,49.5,30.26,NNE,22,0.0,-999.0,90,-99.99,,,0.00,Acu-Link.com,2013-09-16 13:54:00,
2013-09-16 08:09:00,54.5,51.3,30.26,NNE,22,1.7,-999.0,89,-99.99,,,0.00,Acu-Link.com,2013-09-16 14:09:00,
2013-09-16 08:25:00,57.7,52.2,30.26,NNE,22,2.2,-999.0,82,-99.99,,,0.00,Acu-Link.com,2013-09-16 14:25:00,
2013-09-16 08:40:00,58.3,51.8,30.26,NW,315,2.2,-999.0,79,-99.99,,,0.00,Acu-Link.com,2013-09-16 14:40:00,
2013-09-16 08:55:00,58.8,51.6,30.26,NW,315,1.1,-999.0,77,-99.99,,,0.00,Acu-Link.com,2013-09-16 14:55:00,
2013-09-16 09:10:00,61.2,52.5,30.26,NW,315,2.7,-999.0,73,-99.99,,,0.00,Acu-Link.com,2013-09-16 15:10:00,
2013-09-16 09:26:00,61.9,52.0,30.26,NNW,337,3.7,-999.0,70,-99.99,,,0.00,Acu-Link.com,2013-09-16 15:26:00,
2013-09-16 09:41:00,63.5,52.7,30.26,NNW,337,2.7,-999.0,68,-99.99,,,0.00,Acu-Link.com,2013-09-16 15:41:00,
2013-09-16 09:56:00,64.4,52.0,30.26,SSE,157,1.7,-999.0,64,-99.99,,,0.00,Acu-Link.com,2013-09-16 15:56:00,
2013-09-16 10:11:00,65.1,51.8,30.26,WNW,292,3.2,-999.0,62,-99.99,,,0.00,Acu-Link.com,2013-09-16 16:11:00,
2013-09-16 10:27:00,65.5,51.7,30.26,East,90,2.2,-999.0,61,-99.99,,,0.00,Acu-Link.com,2013-09-16 16:27:00,
2013-09-16 10:42:00,67.1,54.5,30.25,WNW,292,3.2,-999.0,64,-99.99,,,0.00,Acu-Link.com,2013-09-16 16:42:00,
2013-09-16 10:57:00,68.4,54.9,30.26,West,270,4.2,-999.0,62,-99.99,,,0.00,Acu-Link.com,2013-09-16 16:57:00,
2013-09-16 11:13:00,67.1,52.3,30.25,East,90,1.7,-999.0,59,-99.99,,,0.00,Acu-Link.com,2013-09-16 17:13:00,
2013-09-16 11:28:00,68.9,53.0,30.24,NE,45,3.7,-999.0,57,-99.99,,,0.00,Acu-Link.com,2013-09-16 17:28:00,
2013-09-16 11:43:00,69.8,53.9,30.24,NW,315,5.3,-999.0,57,-99.99,,,0.00,Acu-Link.com,2013-09-16 17:43:00,
2013-09-16 11:58:00,69.1,53.7,30.23,West,270,2.7,-999.0,58,-99.99,,,0.00,Acu-Link.com,2013-09-16 17:58:00,
2013-09-16 12:14:00,70.9,54.4,30.22,ESE,112,4.2,-999.0,56,-99.99,,,0.00,Acu-Link.com,2013-09-16 18:14:00,
2013-09-16 12:29:00,70.5,53.5,30.21,South,180,3.7,-999.0,55,-99.99,,,0.00,Acu-Link.com,2013-09-16 18:29:00,
2013-09-16 12:44:00,69.6,52.2,30.21,WSW,247,1.7,-999.0,54,-99.99,,,0.00,Acu-Link.com,2013-09-16 18:44:00,
2013-09-16 12:59:00,72.9,55.3,30.20,NW,315,3.7,-999.0,54,-99.99,,,0.00,Acu-Link.com,2013-09-16 18:59:00,
2013-09-16 13:14:00,73.0,53.2,30.20,SW,225,3.7,-999.0,50,-99.99,,,0.00,Acu-Link.com,2013-09-16 19:14:00,
2013-09-16 13:29:00,73.0,53.2,30.19,SSW,202,2.7,-999.0,50,-99.99,,,0.00,Acu-Link.com,2013-09-16 19:29:00,
2013-09-16 13:45:00,72.1,51.9,30.18,WNW,292,5.8,-999.0,49,-99.99,,,0.00,Acu-Link.com,2013-09-16 19:45:00,
2013-09-16 14:00:00,73.6,54.3,30.17,NNE,22,7.3,-999.0,51,-99.99,,,0.00,Acu-Link.com,2013-09-16 20:00:00,
2013-09-16 14:15:00,73.4,53.6,30.16,WSW,247,2.7,-999.0,50,-99.99,,,0.00,Acu-Link.com,2013-09-16 20:15:00,
2013-09-16 14:30:00,73.9,55.2,30.17,SSE,157,6.3,-999.0,52,-99.99,,,0.00,Acu-Link.com,2013-09-16 20:30:00,
2013-09-16 14:45:00,73.9,54.6,30.16,WNW,292,5.8,-999.0,51,-99.99,,,0.00,Acu-Link.com,2013-09-16 20:45:00,
2013-09-16 15:00:00,74.1,54.8,30.15,NNE,22,4.2,-999.0,51,-99.99,,,0.00,Acu-Link.com,2013-09-16 21:00:00,
2013-09-16 15:16:00,74.1,55.9,30.14,SW,225,3.7,-999.0,53,-99.99,,,0.00,Acu-Link.com,2013-09-16 21:16:00,
2013-09-16 15:31:00,73.6,54.9,30.13,NNW,337,7.3,-999.0,52,-99.99,,,0.00,Acu-Link.com,2013-09-16 21:31:00,
2013-09-16 15:46:00,72.9,53.7,30.13,SW,225,9.9,-999.0,51,-99.99,,,0.00,Acu-Link.com,2013-09-16 21:46:00,
2013-09-16 16:01:00,73.0,54.3,30.12,North,0,6.3,-999.0,52,-99.99,,,0.00,Acu-Link.com,2013-09-16 22:01:00,
2013-09-16 16:17:00,73.2,55.5,30.12,SSE,157,5.8,-999.0,54,-99.99,,,0.00,Acu-Link.com,2013-09-16 22:17:00,
2013-09-16 16:32:00,72.7,54.6,30.13,SE,135,3.7,-999.0,53,-99.99,,,0.00,Acu-Link.com,2013-09-16 22:32:00,
2013-09-16 16:47:00,71.4,52.8,30.13,WNW,292,6.8,-999.0,52,-99.99,,,0.00,Acu-Link.com,2013-09-16 22:47:00,
2013-09-16 17:02:00,71.4,53.9,30.12,NNW,337,8.9,-999.0,54,-99.99,,,0.00,Acu-Link.com,2013-09-16 23:02:00,
2013-09-16 17:17:00,70.7,53.2,30.12,NNW,337,6.8,-999.0,54,-99.99,,,0.00,Acu-Link.com,2013-09-16 23:17:00,
2013-09-16 17:32:00,70.3,52.9,30.11,SW,225,5.3,-999.0,54,-99.99,,,0.00,Acu-Link.com,2013-09-16 23:32:00,
2013-09-16 17:47:00,69.6,52.7,30.12,NW,315,7.8,-999.0,55,-99.99,,,0.00,Acu-Link.com,2013-09-16 23:47:00,
2013-09-16 18:02:00,69.8,53.4,30.13,SSW,202,4.7,-999.0,56,-99.99,,,0.00,Acu-Link.com,2013-09-17 00:02:00,
2013-09-16 18:17:00,69.8,52.9,30.13,WNW,292,4.2,-999.0,55,-99.99,,,0.00,Acu-Link.com,2013-09-17 00:17:00,
2013-09-16 18:32:00,67.5,52.7,30.13,West,270,3.2,-999.0,59,-99.99,,,0.00,Acu-Link.com,2013-09-17 00:32:00,
2013-09-16 18:48:00,65.8,52.8,30.13,WNW,292,1.7,-999.0,63,-99.99,,,0.00,Acu-Link.com,2013-09-17 00:48:00,
2013-09-16 19:03:00,64.0,52.8,30.13,NE,45,2.2,-999.0,67,-99.99,,,0.00,Acu-Link.com,2013-09-17 01:03:00,
2013-09-16 19:18:00,61.9,52.4,30.13,NE,45,2.7,-999.0,71,-99.99,,,0.00,Acu-Link.com,2013-09-17 01:18:00,
2013-09-16 19:33:00,60.8,52.5,30.13,SSE,157,2.2,-999.0,74,-99.99,,,0.00,Acu-Link.com,2013-09-17 01:33:00,
2013-09-16 19:49:00,59.7,51.8,30.14,SE,135,2.2,-999.0,75,-99.99,,,0.00,Acu-Link.com,2013-09-17 01:49:00,
2013-09-16 20:04:00,58.6,51.4,30.15,SSW,202,2.7,-999.0,77,-99.99,,,0.00,Acu-Link.com,2013-09-17 02:04:00,
2013-09-16 20:19:00,57.2,51.1,30.16,SSW,202,2.2,-999.0,80,-99.99,,,0.00,Acu-Link.com,2013-09-17 02:19:00,
2013-09-16 20:34:00,57.6,51.1,30.16,ESE,112,3.7,-999.0,79,-99.99,,,0.00,Acu-Link.com,2013-09-17 02:34:00,
2013-09-16 20:50:00,58.1,51.3,30.17,ESE,112,3.7,-999.0,78,-99.99,,,0.00,Acu-Link.com,2013-09-17 02:50:00,
2013-09-16 21:05:00,58.3,51.1,30.18,South,180,5.3,-999.0,77,-99.99,,,0.00,Acu-Link.com,2013-09-17 03:05:00,
2013-09-16 21:20:00,58.1,50.9,30.18,SE,135,1.7,-999.0,77,-99.99,,,0.00,Acu-Link.com,2013-09-17 03:20:00,
2013-09-16 21:35:00,56.7,49.9,30.18,South,180,3.2,-999.0,78,-99.99,,,0.00,Acu-Link.com,2013-09-17 03:35:00,
2013-09-16 21:50:00,55.8,49.7,30.19,ESE,112,2.2,-999.0,80,-99.99,,,0.00,Acu-Link.com,2013-09-17 03:50:00,
2013-09-16 22:06:00,55.0,49.3,30.19,SE,135,2.7,-999.0,81,-99.99,,,0.00,Acu-Link.com,2013-09-17 04:06:00,
2013-09-16 22:21:00,55.2,49.8,30.19,SSW,202,4.2,-999.0,82,-99.99,,,0.00,Acu-Link.com,2013-09-17 04:21:00,
2013-09-16 22:36:00,54.9,49.5,30.19,SE,135,3.7,-999.0,82,-99.99,,,0.00,Acu-Link.com,2013-09-17 04:36:00,
2013-09-16 22:51:00,55.2,49.8,30.20,SSE,157,4.2,-999.0,82,-99.99,,,0.00,Acu-Link.com,2013-09-17 04:51:00,
2013-09-16 23:06:00,54.7,49.3,30.20,ESE,112,0.0,-999.0,82,-99.99,,,0.00,Acu-Link.com,2013-09-17 05:06:00,
2013-09-16 23:22:00,54.0,49.6,30.20,NNE,22,2.7,-999.0,85,-99.99,,,0.00,Acu-Link.com,2013-09-17 05:22:00,
2013-09-16 23:37:00,53.2,49.4,30.20,NNE,22,1.7,-999.0,87,-99.99,,,0.00,Acu-Link.com,2013-09-17 05:37:00,
2013-09-16 23:52:00,52.7,48.6,30.20,NNE,22,0.0,-999.0,86,-99.99,,,0.00,Acu-Link.com,2013-09-17 05:52:00,